Date String (YYYY-MM-DD hh:mm:ss) UTC,Instrument flags,Ambient pressure (hPa),Sample flow (lpm),Bypass flow (lpm),Sample temperature (°C),Ambient temperature (°C),ASC tube jacket temperature (°C),LED temperature (°C),Box temperature (°C),Sample RH (%),Span deviation,Mass concentration (μg/m³),Mass concentration (μg/m³),Mass concentration (μg/m³)
DateTimeUTC,F1_M11,P_M11,Q1_M11,Q2_M11,T1_M11,T2_M11,T3_M11,T4_M11,T5_M11,U1_M11,ZSPAN_M11,X2_M11,X0_M11,X1_M11
2021-11-08 10:00:00,,0829.1,5.00,0.00,28.4,27.5,00.0,37.5,30.1,13.9,0000.0,0003.28,0010.83,0002.08
2021-11-08 10:01:00,,0828.6,4.98,0.00,28.4,27.5,00.0,37.5,30.2,13.9,0000.0,0003.26,0010.12,0002.08
2021-11-08 10:02:00,,0828.7,5.00,0.00,28.4,27.5,00.0,37.5,30.2,13.9,0000.0,0003.25,0009.83,0002.08
2021-11-08 10:03:00,,0829.0,5.01,0.00,28.4,27.5,00.0,37.5,30.2,13.9,0000.0,0003.23,0010.16,0002.07
2021-11-08 10:04:00,,0829.0,5.01,0.00,28.4,27.5,00.0,37.4,30.1,14.0,0000.0,0003.22,0010.19,0002.07
2021-11-08 10:05:00,,0828.6,4.99,0.00,28.4,27.5,00.0,37.5,30.1,14.0,0000.0,0003.23,0009.48,0002.06
2021-11-08 10:06:00,,0828.7,4.99,0.00,28.4,27.5,00.0,37.5,30.1,14.0,0000.0,0003.25,0009.66,0002.04
2021-11-08 10:07:00,,0829.0,5.02,0.00,28.4,27.4,00.0,37.5,30.1,14.0,0000.0,0003.22,0010.29,0002.03
2021-11-08 10:08:00,,0828.9,4.98,0.00,28.4,27.4,00.0,37.4,30.1,14.0,0000.0,0003.19,0010.57,0002.03
2021-11-08 10:09:00,,0829.1,4.99,0.00,28.4,27.4,00.0,37.4,30.1,14.0,0000.0,0003.16,0010.11,0002.03
2021-11-08 10:10:00,,0829.1,5.00,0.00,28.4,27.4,00.0,37.4,30.1,14.0,0000.0,0003.16,0010.38,0002.03
2021-11-08 10:11:00,,0829.1,5.01,0.00,28.4,27.4,00.0,37.4,30.1,14.0,0000.0,0003.18,0010.54,0002.05
2021-11-08 10:12:00,,0828.9,5.00,0.00,28.4,27.4,00.0,37.4,30.1,14.0,0000.0,0003.20,0010.31,0002.05
2021-11-08 10:13:00,,0829.0,5.00,0.00,28.4,27.4,00.0,37.4,30.1,14.0,0000.0,0003.23,0010.84,0002.05
2021-11-08 10:14:00,,0829.0,5.00,0.00,28.4,27.4,00.0,37.4,30.1,14.0,0000.0,0003.22,0010.21,0002.06
2021-11-08 10:15:00,,0828.8,4.99,0.00,28.4,27.4,00.0,37.4,30.1,14.0,0000.0,0003.21,0010.32,0002.06
2021-11-08 10:16:00,,0828.7,5.00,0.00,28.4,27.4,00.0,37.4,30.1,14.0,0000.0,0003.21,0010.42,0002.07
2021-11-08 10:17:00,,0828.8,5.00,0.00,28.3,27.4,00.0,37.4,30.1,14.0,0000.0,0003.21,0010.85,0002.08
2021-11-08 10:18:00,,0828.7,4.99,0.00,28.3,27.4,00.0,37.4,30.1,14.0,0000.0,0003.21,0010.43,0002.08
2021-11-08 10:19:00,,0828.7,5.00,0.00,28.3,27.4,00.0,37.4,30.0,14.0,0000.0,0003.24,0010.01,0002.06
2021-11-08 10:20:00,,0828.8,5.01,0.00,28.3,27.3,00.0,37.4,30.0,14.1,0000.0,0003.24,0009.66,0002.06
2021-11-08 10:21:00,,0829.2,5.01,0.00,28.3,27.3,00.0,37.4,30.1,14.1,0000.0,0003.24,0009.85,0002.06
2021-11-08 10:22:00,,0829.3,5.00,0.00,28.3,27.3,00.0,37.4,30.0,14.0,0000.0,0003.25,0009.43,0002.04
2021-11-08 10:23:00,,0829.4,4.99,0.00,28.3,27.3,00.0,37.4,30.0,14.0,0000.0,0003.22,0009.46,0002.03
2021-11-08 10:24:00,,0829.4,5.00,0.00,28.3,27.3,00.0,37.4,30.0,14.0,0000.0,0003.23,0009.52,0002.01
2021-11-08 10:25:00,,0829.3,5.00,0.00,28.3,27.3,00.0,37.4,30.0,14.0,0000.0,0003.28,0009.61,0002.00
2021-11-08 10:26:00,,0829.2,5.00,0.00,28.3,27.3,00.0,37.4,30.0,14.0,0000.0,0003.32,0009.78,0002.01
2021-11-08 10:27:00,,0828.9,5.00,0.00,28.3,27.3,00.0,37.4,30.0,14.0,0000.0,0003.32,0010.11,0002.02
2021-11-08 10:28:00,,0829.2,5.01,0.00,28.3,27.3,00.0,37.3,30.0,14.0,0000.0,0003.31,0009.42,0002.03
2021-11-08 10:29:00,,0829.3,5.00,0.00,28.3,27.3,00.0,37.3,30.0,14.0,0000.0,0003.31,0009.41,0002.06
2021-11-08 10:30:00,,0829.2,4.99,0.00,28.3,27.3,00.0,37.3,30.0,14.0,0000.0,0003.29,0009.43,0002.07
2021-11-08 10:31:00,,0829.4,4.99,0.00,28.3,27.3,00.0,37.3,30.0,14.0,0000.0,0003.31,0009.46,0002.06
2021-11-08 10:32:00,,0829.0,5.00,0.00,28.3,27.3,00.0,37.3,30.0,14.0,0000.0,0003.29,0009.17,0002.06
2021-11-08 10:33:00,,0828.9,4.99,0.00,28.3,27.3,00.0,37.3,30.0,14.0,0000.0,0003.25,0009.35,0002.06
2021-11-08 10:34:00,,0828.9,5.00,0.00,28.3,27.3,00.0,37.3,30.0,14.0,0000.0,0003.26,0009.94,0002.08
2021-11-08 10:35:00,,0828.9,5.02,0.00,28.3,27.3,00.0,37.3,30.0,13.9,0000.0,0003.25,0009.47,0002.09
2021-11-08 10:36:00,,0828.9,4.98,0.00,28.2,27.3,00.0,37.3,30.0,13.9,0000.0,0003.20,0009.74,0002.11
2021-11-08 10:37:00,,0828.9,5.01,0.00,28.2,27.3,00.0,37.3,30.0,14.0,0000.0,0003.14,0009.49,0002.11
2021-11-08 10:38:00,,0829.0,5.00,0.00,28.2,27.3,00.0,37.3,29.9,14.0,0000.0,0003.16,0009.10,0002.09
2021-11-08 10:39:00,,0829.0,5.01,0.00,28.2,27.3,00.0,37.3,30.0,13.9,0000.0,0003.18,0009.18,0002.07
2021-11-08 10:40:00,,0829.0,4.99,0.00,28.2,27.3,00.0,37.3,30.0,14.0,0000.0,0003.18,0009.62,0002.05
2021-11-08 10:41:00,,0829.0,5.00,0.00,28.2,27.3,00.0,37.3,29.9,14.0,0000.0,0003.16,0009.93,0002.04
2021-11-08 10:42:00,,0829.0,5.00,0.00,28.2,27.2,00.0,37.3,29.9,13.9,0000.0,0003.15,0009.97,0002.03
2021-11-08 10:43:00,,0829.0,4.98,0.00,28.2,27.2,00.0,37.3,30.0,13.9,0000.0,0003.15,0009.99,0002.03
2021-11-08 10:44:00,,0829.1,5.00,0.00,28.2,27.2,00.0,37.3,29.9,13.9,0000.0,0003.20,0010.25,0002.04
2021-11-08 10:45:00,,0829.1,5.00,0.00,28.2,27.2,00.0,37.3,29.9,13.9,0000.0,0003.22,0009.68,0002.04
2021-11-08 10:46:00,,0829.1,5.00,0.00,28.2,27.2,00.0,37.3,29.9,13.9,0000.0,0003.22,0009.63,0002.05
2021-11-08 10:47:00,,0829.2,5.01,0.00,28.2,27.2,00.0,37.3,29.9,14.0,0000.0,0003.23,0009.82,0002.05
2021-11-08 10:48:00,,0829.2,4.99,0.00,28.2,27.2,00.0,37.3,29.9,14.0,0000.0,0003.24,0010.15,0002.06
2021-11-08 10:49:00,,0829.2,5.00,0.00,28.2,27.2,00.0,37.3,29.9,14.0,0000.0,0003.26,0010.26,0002.08
2021-11-08 10:50:00,,0829.2,5.02,0.00,28.2,27.2,00.0,37.3,29.9,13.9,0000.0,0003.29,0011.14,0002.11
2021-11-08 10:51:00,,0829.2,5.02,0.00,28.2,27.2,00.0,37.2,29.9,13.9,0000.0,0003.31,0010.98,0002.14
2021-11-08 10:52:00,,0829.2,5.00,0.00,28.2,27.2,00.0,37.2,29.9,13.9,0000.0,0003.31,0010.25,0002.14
2021-11-08 10:53:00,,0829.3,4.99,0.00,28.2,27.2,00.0,37.2,29.9,13.9,0000.0,0003.33,0010.39,0002.16
2021-11-08 10:54:00,,0829.3,5.00,0.00,28.2,27.2,00.0,37.2,29.9,14.0,0000.0,0003.34,0010.40,0002.18
2021-11-08 10:55:00,,0829.3,5.02,0.00,28.2,27.2,00.0,37.2,29.9,14.0,0000.0,0003.32,0009.87,0002.20
2021-11-08 10:56:00,,0829.3,5.00,0.00,28.2,27.2,00.0,37.2,29.9,14.0,0000.0,0003.29,0009.36,0002.20
2021-11-08 10:57:00,,0829.3,5.00,0.00,28.2,27.2,00.0,37.2,29.9,14.1,0000.0,0003.32,0009.96,0002.21
2021-11-08 10:58:00,,0829.2,5.00,0.00,28.2,27.2,00.0,37.2,29.9,14.3,0000.0,0003.31,0010.06,0002.20
2021-11-08 10:59:00,,0829.3,5.00,0.00,28.2,27.2,00.0,37.2,29.9,14.3,0000.0,0003.31,0009.49,0002.19
